GEFSMW_prec_meanprecacc_102.txt.gz
Total_Precipitation_Accumulation
0.32 0.49 0.71 0.95 1.20 1.34 1.36 1.41 1.46 1.67 1.88 2.17 2.44 2.59 2.66 2.89 2.98 3.01 3.15 3.15 3.10 3.18 3.19 3.09 2.96 2.81 2.67 2.52 2.42 2.25 2.09 1.90 1.76 1.59 1.30 1.01 0.83 0.83 0.80 0.78 0.77 0.73 0.69
0.49 0.77 1.04 1.41 1.58 1.61 1.59 1.68 1.75 1.95 2.20 2.55 2.94 3.35 3.53 3.68 3.67 3.68 3.87 3.99 4.00 4.12 4.21 4.09 3.86 3.66 3.29 2.85 2.52 2.30 2.17 1.98 1.89 1.75 1.62 1.23 0.91 0.71 0.60 0.63 0.66 0.66 0.67
0.81 1.03 1.23 1.36 1.55 1.66 1.74 1.83 2.09 2.46 2.89 3.34 3.79 4.18 4.46 4.51 4.45 4.19 4.21 4.33 4.33 4.36 4.52 4.50 4.21 3.80 3.25 2.75 2.55 2.42 2.25 2.09 1.97 1.80 1.75 1.49 1.21 0.89 0.65 0.56 0.51 0.51 0.49
0.83 0.99 1.19 1.40 1.52 1.66 1.84 1.96 2.26 2.77 3.22 3.67 4.28 4.74 5.00 5.15 5.24 5.04 4.74 4.58 4.43 4.31 4.21 4.08 3.69 3.22 2.85 2.56 2.44 2.38 2.18 2.10 1.95 1.83 1.58 1.37 1.20 1.02 0.80 0.61 0.49 0.42 0.37
0.59 0.76 0.93 1.25 1.51 1.60 1.65 1.76 2.15 2.73 3.45 4.14 4.64 5.10 5.43 5.51 5.44 5.11 4.74 4.36 4.04 3.66 3.32 2.99 2.74 2.58 2.36 2.14 2.01 1.94 1.86 1.72 1.59 1.55 1.46 1.33 1.16 0.96 0.78 0.67 0.57 0.51 0.45
0.43 0.52 0.65 0.90 1.23 1.33 1.50 1.74 2.09 2.76 3.51 4.10 4.57 4.91 5.22 5.22 4.92 4.50 4.03 3.72 3.37 2.95 2.58 2.39 2.17 2.00 1.80 1.57 1.42 1.35 1.36 1.38 1.40 1.41 1.36 1.27 1.18 1.04 0.92 0.80 0.67 0.61 0.57
0.38 0.44 0.52 0.70 0.96 1.16 1.45 1.82 2.21 2.73 3.18 3.68 4.08 4.30 4.46 4.49 4.39 4.12 3.73 3.43 3.06 2.65 2.23 1.90 1.73 1.52 1.33 1.21 1.12 1.07 1.06 1.09 1.14 1.22 1.24 1.20 1.15 1.07 1.02 0.97 0.88 0.80 0.72
0.46 0.54 0.65 0.79 0.93 1.08 1.28 1.64 1.98 2.39 2.63 2.86 3.18 3.39 3.52 3.53 3.43 3.26 2.99 2.67 2.37 2.11 1.81 1.40 1.12 0.95 0.84 0.78 0.77 0.80 0.81 0.83 0.88 0.95 1.00 1.01 1.00 0.99 0.99 0.99 0.99 1.02 0.94
0.42 0.54 0.66 0.75 0.84 0.93 1.12 1.29 1.48 1.74 2.01 2.25 2.39 2.48 2.53 2.44 2.36 2.20 1.98 1.79 1.61 1.41 1.18 0.94 0.77 0.68 0.63 0.59 0.56 0.57 0.57 0.59 0.65 0.73 0.80 0.87 0.88 0.86 0.88 0.91 0.92 0.94 0.97
0.44 0.53 0.59 0.64 0.68 0.72 0.86 1.00 1.15 1.30 1.47 1.61 1.65 1.59 1.59 1.57 1.44 1.32 1.23 1.09 0.94 0.82 0.74 0.64 0.58 0.52 0.48 0.46 0.46 0.45 0.43 0.47 0.49 0.53 0.59 0.68 0.74 0.78 0.82 0.85 0.83 0.76 0.75
0.51 0.50 0.51 0.52 0.51 0.52 0.62 0.73 0.82 0.97 1.07 1.11 1.12 1.04 0.99 0.92 0.85 0.78 0.77 0.69 0.61 0.58 0.55 0.49 0.45 0.43 0.41 0.40 0.39 0.40 0.37 0.40 0.46 0.51 0.54 0.60 0.63 0.67 0.68 0.67 0.68 0.70 0.71
0.54 0.48 0.45 0.41 0.41 0.44 0.48 0.54 0.62 0.67 0.70 0.68 0.65 0.63 0.60 0.58 0.57 0.55 0.53 0.54 0.51 0.48 0.46 0.43 0.41 0.40 0.41 0.40 0.38 0.37 0.38 0.38 0.39 0.42 0.42 0.46 0.48 0.51 0.52 0.53 0.54 0.56 0.59
0.56 0.51 0.48 0.43 0.43 0.45 0.45 0.43 0.46 0.50 0.50 0.49 0.49 0.46 0.46 0.47 0.49 0.51 0.49 0.49 0.47 0.45 0.42 0.39 0.39 0.39 0.40 0.39 0.38 0.36 0.35 0.34 0.33 0.32 0.30 0.31 0.32 0.34 0.34 0.35 0.36 0.36 0.37
0.59 0.59 0.61 0.58 0.52 0.47 0.47 0.43 0.43 0.43 0.46 0.45 0.43 0.39 0.37 0.38 0.40 0.41 0.41 0.41 0.41 0.43 0.44 0.42 0.40 0.37 0.34 0.31 0.29 0.27 0.26 0.25 0.25 0.23 0.20 0.20 0.20 0.22 0.25 0.25 0.26 0.28 0.30
0.71 0.72 0.72 0.65 0.58 0.55 0.53 0.50 0.49 0.47 0.47 0.48 0.50 0.47 0.42 0.39 0.39 0.40 0.44 0.43 0.38 0.35 0.33 0.30 0.27 0.23 0.19 0.17 0.16 0.16 0.17 0.17 0.17 0.16 0.15 0.15 0.18 0.19 0.20 0.20 0.22 0.27 0.30
0.94 0.91 0.84 0.77 0.73 0.71 0.66 0.63 0.60 0.58 0.57 0.58 0.58 0.59 0.58 0.55 0.51 0.46 0.41 0.36 0.31 0.25 0.19 0.15 0.15 0.14 0.13 0.12 0.13 0.13 0.14 0.14 0.15 0.15 0.15 0.15 0.15 0.15 0.15 0.17 0.21 0.28 0.29
1.09 1.08 1.04 0.97 0.90 0.87 0.82 0.79 0.74 0.69 0.68 0.67 0.66 0.65 0.61 0.56 0.46 0.36 0.29 0.24 0.22 0.20 0.17 0.13 0.10 0.09 0.10 0.11 0.11 0.12 0.13 0.14 0.15 0.14 0.15 0.13 0.11 0.13 0.14 0.14 0.15 0.16 0.15
1.09 1.08 1.06 1.06 1.02 0.95 0.87 0.84 0.79 0.74 0.70 0.69 0.64 0.59 0.51 0.43 0.34 0.27 0.23 0.20 0.20 0.21 0.20 0.16 0.14 0.11 0.08 0.07 0.08 0.08 0.10 0.12 0.12 0.11 0.12 0.13 0.14 0.13 0.12 0.10 0.11 0.14 0.17
1.22 1.17 1.10 1.02 0.98 0.93 0.87 0.84 0.83 0.78 0.69 0.62 0.53 0.43 0.35 0.30 0.25 0.22 0.20 0.20 0.19 0.18 0.16 0.16 0.16 0.16 0.12 0.06 0.05 0.05 0.08 0.10 0.10 0.10 0.09 0.10 0.13 0.12 0.11 0.10 0.15 0.21 0.24
1.05 0.98 0.89 0.80 0.78 0.78 0.75 0.69 0.65 0.61 0.53 0.41 0.33 0.29 0.27 0.26 0.24 0.21 0.19 0.18 0.18 0.16 0.13 0.11 0.13 0.14 0.13 0.06 0.05 0.06 0.07 0.09 0.09 0.09 0.11 0.09 0.09 0.08 0.07 0.10 0.17 0.25 0.26
0.77 0.72 0.68 0.70 0.70 0.62 0.53 0.48 0.43 0.40 0.33 0.27 0.24 0.22 0.21 0.19 0.21 0.22 0.20 0.19 0.18 0.18 0.16 0.14 0.13 0.12 0.08 0.04 0.03 0.03 0.05 0.07 0.08 0.12 0.18 0.17 0.09 0.05 0.05 0.08 0.14 0.20 0.18
0.52 0.51 0.53 0.55 0.52 0.43 0.37 0.36 0.34 0.27 0.22 0.23 0.25 0.24 0.20 0.15 0.18 0.25 0.24 0.22 0.23 0.24 0.23 0.21 0.18 0.14 0.09 0.04 0.02 0.02 0.02 0.03 0.08 0.17 0.19 0.18 0.10 0.07 0.10 0.11 0.15 0.17 0.24
0.38 0.41 0.38 0.38 0.37 0.35 0.34 0.34 0.31 0.25 0.24 0.27 0.30 0.26 0.20 0.18 0.21 0.25 0.26 0.25 0.25 0.22 0.19 0.19 0.18 0.15 0.13 0.08 0.02 0.01 0.01 0.02 0.06 0.13 0.12 0.12 0.13 0.15 0.26 0.24 0.22 0.28 0.43
0.31 0.33 0.31 0.31 0.32 0.32 0.32 0.32 0.29 0.28 0.34 0.38 0.33 0.25 0.23 0.22 0.23 0.22 0.20 0.18 0.20 0.17 0.16 0.17 0.15 0.15 0.15 0.08 0.03 0.03 0.04 0.05 0.08 0.11 0.14 0.22 0.28 0.32 0.39 0.43 0.48 0.50 0.50
0.28 0.29 0.31 0.30 0.26 0.25 0.25 0.24 0.27 0.32 0.42 0.40 0.32 0.25 0.21 0.21 0.21 0.18 0.12 0.09 0.08 0.06 0.09 0.11 0.10 0.10 0.09 0.04 0.03 0.03 0.03 0.04 0.05 0.08 0.20 0.35 0.42 0.47 0.51 0.54 0.57 0.59 0.52
0.23 0.27 0.29 0.25 0.23 0.22 0.22 0.21 0.25 0.29 0.37 0.38 0.27 0.20 0.16 0.15 0.13 0.14 0.13 0.07 0.03 0.02 0.02 0.03 0.03 0.03 0.04 0.03 0.02 0.02 0.03 0.05 0.07 0.13 0.29 0.36 0.39 0.43 0.44 0.44 0.48 0.52 0.51

GEFSMW_prec_meanprecacc_108.txt.gz
Total_Precipitation_Accumulation
0.33 0.50 0.72 0.96 1.22 1.38 1.42 1.51 1.63 1.80 1.97 2.26 2.52 2.66 2.74 2.97 3.07 3.14 3.26 3.24 3.18 3.26 3.26 3.17 3.06 2.91 2.77 2.62 2.55 2.39 2.22 2.05 1.95 1.80 1.49 1.18 1.03 1.05 1.02 0.98 1.00 0.99 0.90
0.50 0.78 1.04 1.41 1.59 1.64 1.63 1.70 1.79 2.01 2.26 2.61 3.00 3.41 3.60 3.76 3.75 3.77 3.95 4.05 4.07 4.19 4.29 4.17 3.95 3.76 3.38 2.95 2.63 2.42 2.29 2.09 2.02 1.92 1.81 1.41 1.12 0.92 0.79 0.81 0.84 0.85 0.87
0.83 1.04 1.24 1.37 1.55 1.67 1.76 1.85 2.12 2.50 2.94 3.39 3.85 4.24 4.52 4.57 4.51 4.26 4.28 4.40 4.39 4.43 4.60 4.58 4.31 3.91 3.35 2.84 2.64 2.52 2.35 2.19 2.09 1.94 1.92 1.64 1.36 1.07 0.81 0.70 0.65 0.66 0.64
0.85 1.00 1.20 1.41 1.53 1.67 1.85 1.97 2.28 2.80 3.26 3.71 4.33 4.81 5.07 5.23 5.33 5.12 4.82 4.64 4.48 4.36 4.28 4.15 3.76 3.29 2.93 2.65 2.54 2.48 2.27 2.21 2.06 1.95 1.71 1.50 1.31 1.14 0.92 0.75 0.64 0.58 0.53
0.60 0.77 0.93 1.26 1.52 1.61 1.67 1.77 2.17 2.75 3.47 4.17 4.68 5.14 5.49 5.61 5.54 5.19 4.82 4.42 4.10 3.71 3.37 3.04 2.80 2.64 2.42 2.20 2.08 2.02 1.94 1.81 1.69 1.66 1.60 1.50 1.32 1.08 0.89 0.80 0.72 0.67 0.60
0.43 0.52 0.65 0.91 1.23 1.33 1.50 1.75 2.09 2.78 3.53 4.12 4.59 4.93 5.25 5.27 4.99 4.58 4.12 3.81 3.43 3.01 2.63 2.44 2.21 2.06 1.87 1.64 1.49 1.44 1.46 1.48 1.51 1.52 1.48 1.42 1.35 1.21 1.07 0.94 0.83 0.80 0.77
0.39 0.44 0.52 0.70 0.96 1.16 1.45 1.82 2.21 2.74 3.20 3.69 4.10 4.31 4.47 4.50 4.42 4.17 3.80 3.51 3.13 2.71 2.29 1.96 1.78 1.56 1.38 1.28 1.20 1.16 1.15 1.20 1.27 1.36 1.36 1.33 1.29 1.22 1.18 1.15 1.09 1.01 0.93
0.47 0.54 0.65 0.79 0.94 1.08 1.28 1.64 1.98 2.40 2.64 2.87 3.19 3.41 3.52 3.54 3.44 3.28 3.02 2.71 2.41 2.15 1.85 1.45 1.16 1.00 0.89 0.84 0.85 0.88 0.92 0.95 0.99 1.07 1.12 1.13 1.11 1.11 1.12 1.13 1.15 1.21 1.14
0.43 0.55 0.67 0.76 0.84 0.93 1.12 1.29 1.48 1.75 2.02 2.25 2.40 2.50 2.54 2.45 2.38 2.21 1.99 1.80 1.62 1.42 1.19 0.96 0.80 0.71 0.68 0.64 0.63 0.64 0.67 0.70 0.76 0.83 0.92 0.98 1.00 0.99 1.01 1.05 1.06 1.08 1.14
0.46 0.54 0.59 0.64 0.68 0.72 0.86 1.00 1.16 1.30 1.48 1.62 1.66 1.60 1.60 1.58 1.45 1.33 1.24 1.10 0.95 0.83 0.75 0.65 0.61 0.57 0.52 0.51 0.51 0.50 0.51 0.59 0.62 0.65 0.71 0.81 0.88 0.91 0.95 0.98 0.96 0.90 0.88
0.53 0.52 0.52 0.52 0.51 0.52 0.63 0.73 0.82 0.97 1.08 1.12 1.13 1.05 0.99 0.92 0.85 0.79 0.78 0.70 0.63 0.60 0.57 0.52 0.49 0.49 0.48 0.47 0.44 0.44 0.42 0.46 0.56 0.65 0.69 0.73 0.75 0.77 0.77 0.78 0.79 0.82 0.84
0.58 0.51 0.46 0.42 0.41 0.44 0.48 0.54 0.62 0.67 0.70 0.69 0.66 0.63 0.60 0.58 0.57 0.55 0.54 0.54 0.52 0.49 0.48 0.46 0.45 0.45 0.47 0.48 0.45 0.42 0.42 0.42 0.45 0.50 0.52 0.54 0.54 0.57 0.59 0.61 0.62 0.66 0.70
0.59 0.53 0.50 0.44 0.43 0.45 0.45 0.43 0.46 0.50 0.51 0.49 0.49 0.46 0.46 0.47 0.49 0.51 0.50 0.49 0.48 0.45 0.43 0.42 0.42 0.43 0.43 0.43 0.42 0.39 0.38 0.37 0.36 0.35 0.34 0.35 0.36 0.39 0.41 0.42 0.44 0.45 0.46
0.64 0.64 0.64 0.59 0.52 0.47 0.47 0.43 0.43 0.43 0.46 0.45 0.43 0.39 0.37 0.38 0.40 0.41 0.41 0.41 0.41 0.43 0.44 0.42 0.41 0.38 0.34 0.32 0.30 0.28 0.27 0.26 0.27 0.26 0.23 0.23 0.24 0.27 0.30 0.31 0.33 0.34 0.38
0.79 0.78 0.74 0.66 0.59 0.55 0.53 0.50 0.49 0.47 0.47 0.49 0.51 0.48 0.43 0.40 0.40 0.41 0.44 0.43 0.38 0.35 0.33 0.30 0.27 0.23 0.19 0.17 0.16 0.16 0.17 0.17 0.19 0.19 0.18 0.19 0.23 0.26 0.26 0.25 0.28 0.33 0.37
1.00 0.94 0.86 0.78 0.74 0.71 0.67 0.63 0.60 0.58 0.57 0.58 0.60 0.61 0.59 0.56 0.52 0.47 0.42 0.37 0.31 0.25 0.20 0.15 0.15 0.15 0.13 0.13 0.13 0.13 0.14 0.15 0.16 0.18 0.19 0.19 0.21 0.22 0.22 0.24 0.29 0.36 0.38
1.14 1.10 1.06 0.98 0.92 0.87 0.83 0.79 0.74 0.69 0.68 0.68 0.67 0.66 0.63 0.57 0.48 0.37 0.30 0.26 0.23 0.20 0.17 0.13 0.10 0.10 0.11 0.11 0.12 0.13 0.14 0.16 0.17 0.17 0.18 0.17 0.16 0.18 0.18 0.20 0.24 0.26 0.26
1.14 1.11 1.09 1.08 1.04 0.96 0.88 0.84 0.79 0.74 0.70 0.70 0.66 0.61 0.53 0.45 0.36 0.29 0.25 0.22 0.21 0.22 0.20 0.17 0.14 0.12 0.10 0.08 0.08 0.09 0.11 0.13 0.15 0.15 0.16 0.17 0.19 0.18 0.17 0.15 0.16 0.21 0.24
1.25 1.19 1.12 1.03 1.00 0.95 0.88 0.85 0.84 0.79 0.70 0.64 0.55 0.46 0.38 0.33 0.27 0.24 0.22 0.21 0.20 0.18 0.17 0.16 0.17 0.17 0.13 0.07 0.06 0.07 0.09 0.12 0.13 0.13 0.13 0.15 0.19 0.19 0.17 0.16 0.20 0.25 0.28
1.06 0.99 0.90 0.81 0.78 0.79 0.76 0.70 0.67 0.62 0.54 0.43 0.35 0.31 0.30 0.28 0.26 0.23 0.21 0.20 0.19 0.17 0.14 0.12 0.13 0.14 0.14 0.07 0.06 0.08 0.08 0.11 0.10 0.12 0.14 0.14 0.13 0.13 0.11 0.13 0.21 0.29 0.29
0.79 0.73 0.69 0.71 0.70 0.63 0.53 0.49 0.44 0.40 0.34 0.28 0.26 0.24 0.23 0.21 0.22 0.23 0.22 0.21 0.20 0.20 0.17 0.15 0.14 0.13 0.09 0.05 0.04 0.04 0.05 0.08 0.09 0.14 0.20 0.20 0.11 0.08 0.08 0.10 0.16 0.22 0.20
0.54 0.52 0.54 0.56 0.53 0.43 0.38 0.37 0.34 0.28 0.23 0.24 0.26 0.25 0.21 0.16 0.19 0.27 0.26 0.24 0.25 0.26 0.24 0.22 0.19 0.15 0.11 0.06 0.03 0.03 0.03 0.04 0.09 0.18 0.21 0.20 0.11 0.09 0.11 0.13 0.16 0.18 0.25
0.40 0.43 0.41 0.39 0.39 0.37 0.36 0.36 0.33 0.26 0.25 0.28 0.31 0.27 0.21 0.19 0.22 0.26 0.27 0.25 0.26 0.23 0.19 0.20 0.19 0.16 0.14 0.09 0.03 0.02 0.03 0.03 0.07 0.14 0.13 0.13 0.14 0.16 0.26 0.24 0.22 0.28 0.43
0.33 0.35 0.34 0.33 0.34 0.34 0.35 0.36 0.31 0.29 0.34 0.39 0.34 0.26 0.24 0.23 0.24 0.23 0.20 0.19 0.20 0.17 0.16 0.17 0.16 0.16 0.16 0.10 0.05 0.04 0.06 0.06 0.09 0.12 0.15 0.23 0.29 0.32 0.39 0.43 0.48 0.51 0.50
0.29 0.31 0.33 0.32 0.28 0.26 0.27 0.26 0.29 0.33 0.43 0.42 0.33 0.26 0.23 0.22 0.22 0.18 0.12 0.09 0.08 0.06 0.09 0.12 0.11 0.11 0.10 0.06 0.06 0.05 0.04 0.05 0.06 0.09 0.20 0.36 0.42 0.48 0.52 0.54 0.57 0.59 0.52
0.24 0.28 0.29 0.27 0.24 0.23 0.23 0.22 0.26 0.30 0.38 0.39 0.28 0.21 0.17 0.16 0.14 0.14 0.13 0.07 0.03 0.02 0.02 0.03 0.03 0.04 0.05 0.05 0.04 0.03 0.04 0.05 0.08 0.14 0.29 0.36 0.39 0.44 0.44 0.44 0.48 0.52 0.51

GEFSMW_prec_meanprecacc_114.txt.gz
Total_Precipitation_Accumulation
0.35 0.52 0.73 0.98 1.25 1.41 1.45 1.55 1.69 1.86 2.03 2.31 2.59 2.73 2.82 3.07 3.19 3.30 3.43 3.39 3.31 3.38 3.38 3.28 3.17 3.02 2.88 2.72 2.64 2.49 2.31 2.12 2.03 1.90 1.61 1.29 1.11 1.12 1.09 1.08 1.13 1.13 1.04
0.52 0.80 1.06 1.43 1.61 1.66 1.65 1.72 1.82 2.04 2.29 2.64 3.06 3.49 3.68 3.85 3.87 3.91 4.09 4.18 4.20 4.32 4.40 4.29 4.07 3.86 3.48 3.05 2.75 2.54 2.39 2.19 2.13 2.02 1.93 1.53 1.22 1.00 0.85 0.89 0.92 0.96 0.99
0.85 1.06 1.26 1.39 1.57 1.68 1.77 1.86 2.14 2.52 2.95 3.41 3.89 4.32 4.62 4.65 4.59 4.35 4.39 4.50 4.49 4.54 4.70 4.68 4.41 4.02 3.46 2.94 2.75 2.63 2.45 2.29 2.20 2.03 2.02 1.72 1.43 1.15 0.88 0.75 0.72 0.73 0.73
0.88 1.03 1.22 1.43 1.54 1.68 1.86 1.98 2.29 2.81 3.27 3.73 4.36 4.87 5.17 5.31 5.39 5.20 4.89 4.72 4.56 4.45 4.37 4.24 3.86 3.41 3.05 2.77 2.66 2.60 2.38 2.33 2.18 2.06 1.80 1.57 1.36 1.20 0.99 0.82 0.70 0.65 0.61
0.64 0.81 0.95 1.27 1.53 1.62 1.67 1.78 2.18 2.76 3.49 4.19 4.71 5.17 5.55 5.68 5.61 5.28 4.90 4.49 4.16 3.77 3.43 3.11 2.87 2.73 2.51 2.30 2.21 2.16 2.08 1.94 1.82 1.77 1.70 1.61 1.40 1.13 0.93 0.85 0.78 0.75 0.70
0.49 0.55 0.67 0.92 1.25 1.35 1.51 1.76 2.11 2.79 3.55 4.14 4.62 4.96 5.29 5.31 5.05 4.65 4.19 3.88 3.51 3.09 2.68 2.49 2.27 2.12 1.93 1.71 1.58 1.55 1.57 1.60 1.63 1.65 1.59 1.52 1.45 1.30 1.15 1.03 0.92 0.90 0.88
0.44 0.47 0.53 0.71 0.96 1.16 1.45 1.83 2.22 2.75 3.21 3.71 4.12 4.34 4.50 4.53 4.45 4.21 3.84 3.55 3.18 2.79 2.38 2.01 1.82 1.60 1.41 1.32 1.27 1.23 1.23 1.27 1.34 1.45 1.47 1.42 1.37 1.32 1.28 1.25 1.18 1.10 1.02
0.53 0.58 0.67 0.79 0.94 1.08 1.29 1.64 1.98 2.40 2.64 2.87 3.20 3.42 3.54 3.55 3.46 3.29 3.04 2.74 2.45 2.19 1.91 1.51 1.21 1.04 0.92 0.88 0.89 0.92 0.98 1.01 1.05 1.14 1.22 1.21 1.19 1.20 1.22 1.23 1.25 1.32 1.24
0.49 0.58 0.68 0.77 0.84 0.93 1.12 1.29 1.48 1.75 2.03 2.26 2.41 2.51 2.55 2.47 2.39 2.22 2.00 1.82 1.65 1.46 1.23 1.00 0.84 0.76 0.73 0.69 0.67 0.68 0.71 0.75 0.81 0.89 0.97 1.05 1.08 1.07 1.10 1.14 1.16 1.19 1.25
0.52 0.58 0.62 0.66 0.68 0.72 0.87 1.00 1.16 1.31 1.48 1.63 1.67 1.61 1.60 1.59 1.46 1.34 1.25 1.10 0.96 0.86 0.78 0.68 0.64 0.61 0.56 0.55 0.55 0.53 0.54 0.61 0.65 0.68 0.76 0.87 0.96 1.00 1.04 1.08 1.08 1.01 0.99
0.60 0.57 0.55 0.54 0.52 0.53 0.63 0.74 0.82 0.97 1.08 1.12 1.13 1.05 0.99 0.92 0.86 0.79 0.78 0.70 0.63 0.62 0.60 0.53 0.51 0.51 0.50 0.49 0.47 0.48 0.45 0.49 0.59 0.68 0.74 0.79 0.84 0.88 0.89 0.90 0.92 0.97 0.99
0.66 0.56 0.49 0.44 0.42 0.44 0.48 0.54 0.62 0.67 0.70 0.69 0.66 0.64 0.60 0.58 0.57 0.55 0.54 0.55 0.53 0.51 0.50 0.48 0.46 0.46 0.48 0.50 0.48 0.48 0.48 0.48 0.51 0.55 0.58 0.60 0.62 0.67 0.72 0.76 0.76 0.80 0.84
0.67 0.59 0.53 0.47 0.45 0.46 0.45 0.43 0.46 0.50 0.51 0.50 0.49 0.46 0.46 0.47 0.49 0.51 0.50 0.49 0.49 0.47 0.45 0.44 0.44 0.45 0.44 0.45 0.46 0.46 0.45 0.44 0.44 0.42 0.40 0.41 0.43 0.47 0.48 0.51 0.54 0.56 0.57
0.68 0.68 0.67 0.61 0.54 0.48 0.47 0.44 0.43 0.43 0.47 0.46 0.44 0.39 0.37 0.38 0.40 0.41 0.41 0.41 0.41 0.44 0.45 0.45 0.43 0.40 0.35 0.33 0.32 0.31 0.31 0.30 0.31 0.29 0.27 0.27 0.29 0.31 0.34 0.36 0.38 0.41 0.46
0.82 0.80 0.77 0.69 0.61 0.57 0.54 0.50 0.49 0.47 0.47 0.49 0.52 0.49 0.43 0.40 0.40 0.41 0.44 0.43 0.39 0.36 0.35 0.31 0.28 0.24 0.19 0.17 0.17 0.17 0.18 0.19 0.20 0.20 0.18 0.19 0.24 0.28 0.29 0.29 0.33 0.38 0.44
1.04 0.98 0.90 0.83 0.78 0.74 0.68 0.63 0.60 0.58 0.57 0.59 0.62 0.63 0.61 0.57 0.52 0.47 0.43 0.37 0.33 0.27 0.21 0.16 0.15 0.15 0.13 0.13 0.13 0.14 0.14 0.16 0.17 0.19 0.19 0.19 0.21 0.23 0.23 0.26 0.33 0.42 0.44
1.21 1.15 1.10 1.02 0.96 0.92 0.87 0.81 0.75 0.70 0.68 0.68 0.69 0.68 0.64 0.58 0.49 0.38 0.32 0.28 0.25 0.22 0.19 0.14 0.10 0.10 0.11 0.12 0.12 0.13 0.14 0.16 0.18 0.18 0.18 0.18 0.17 0.19 0.20 0.23 0.27 0.31 0.33
1.20 1.16 1.14 1.12 1.10 1.00 0.92 0.86 0.80 0.74 0.71 0.71 0.68 0.63 0.55 0.48 0.38 0.31 0.27 0.25 0.23 0.23 0.22 0.18 0.15 0.13 0.10 0.09 0.09 0.10 0.11 0.14 0.16 0.16 0.17 0.19 0.20 0.20 0.20 0.20 0.21 0.27 0.33
1.31 1.24 1.16 1.08 1.04 0.99 0.92 0.87 0.84 0.79 0.71 0.66 0.57 0.47 0.40 0.35 0.29 0.26 0.24 0.23 0.21 0.20 0.18 0.17 0.17 0.17 0.14 0.08 0.08 0.08 0.09 0.12 0.14 0.14 0.15 0.17 0.21 0.22 0.20 0.20 0.26 0.31 0.36
1.12 1.05 0.94 0.85 0.82 0.82 0.79 0.72 0.68 0.64 0.56 0.45 0.37 0.32 0.30 0.29 0.27 0.24 0.23 0.22 0.21 0.20 0.16 0.14 0.15 0.15 0.14 0.09 0.09 0.09 0.09 0.11 0.11 0.13 0.16 0.16 0.17 0.17 0.15 0.16 0.25 0.35 0.37
0.81 0.76 0.72 0.74 0.73 0.66 0.56 0.51 0.45 0.41 0.35 0.29 0.26 0.25 0.24 0.21 0.23 0.24 0.23 0.23 0.22 0.23 0.21 0.19 0.17 0.14 0.10 0.07 0.07 0.06 0.06 0.08 0.10 0.15 0.22 0.23 0.14 0.12 0.13 0.16 0.20 0.28 0.26
0.56 0.55 0.56 0.59 0.57 0.46 0.40 0.39 0.35 0.28 0.23 0.24 0.26 0.26 0.22 0.17 0.20 0.27 0.27 0.25 0.28 0.30 0.29 0.26 0.23 0.17 0.13 0.07 0.05 0.04 0.03 0.04 0.10 0.20 0.23 0.22 0.14 0.11 0.14 0.17 0.21 0.23 0.29
0.42 0.45 0.43 0.43 0.43 0.40 0.38 0.37 0.34 0.26 0.25 0.29 0.31 0.27 0.22 0.20 0.23 0.27 0.27 0.26 0.27 0.25 0.24 0.23 0.22 0.18 0.16 0.11 0.05 0.04 0.04 0.04 0.08 0.15 0.14 0.14 0.16 0.18 0.28 0.26 0.24 0.30 0.45
0.34 0.37 0.36 0.35 0.37 0.36 0.36 0.37 0.32 0.30 0.36 0.40 0.36 0.27 0.25 0.24 0.24 0.24 0.21 0.19 0.20 0.18 0.17 0.19 0.17 0.18 0.18 0.12 0.07 0.05 0.07 0.08 0.10 0.13 0.16 0.24 0.30 0.33 0.40 0.44 0.49 0.51 0.51
0.32 0.33 0.34 0.33 0.28 0.27 0.28 0.28 0.31 0.35 0.45 0.44 0.34 0.27 0.24 0.23 0.22 0.19 0.13 0.09 0.09 0.07 0.10 0.13 0.12 0.12 0.12 0.08 0.07 0.06 0.05 0.06 0.07 0.10 0.21 0.37 0.43 0.48 0.52 0.54 0.57 0.59 0.53
0.26 0.30 0.31 0.28 0.25 0.24 0.24 0.25 0.30 0.32 0.39 0.40 0.29 0.22 0.18 0.16 0.14 0.14 0.14 0.07 0.03 0.03 0.03 0.04 0.04 0.04 0.05 0.05 0.05 0.05 0.05 0.07 0.09 0.15 0.31 0.37 0.40 0.44 0.45 0.44 0.48 0.52 0.51

GEFSMW_prec_meanprecacc_120.txt.gz
Total_Precipitation_Accumulation
0.38 0.53 0.75 1.00 1.27 1.44 1.50 1.60 1.74 1.92 2.10 2.38 2.68 2.81 2.89 3.14 3.27 3.36 3.50 3.47 3.39 3.46 3.48 3.38 3.28 3.15 3.00 2.84 2.74 2.58 2.39 2.19 2.10 1.97 1.67 1.35 1.15 1.16 1.13 1.12 1.18 1.18 1.11
0.53 0.81 1.07 1.44 1.62 1.68 1.68 1.75 1.85 2.09 2.36 2.70 3.11 3.53 3.72 3.89 3.93 3.98 4.16 4.25 4.27 4.39 4.49 4.38 4.17 3.96 3.58 3.15 2.85 2.64 2.49 2.27 2.20 2.10 2.01 1.59 1.26 1.03 0.88 0.92 0.95 0.99 1.05
0.86 1.07 1.27 1.40 1.58 1.70 1.79 1.89 2.17 2.57 2.99 3.45 3.93 4.37 4.66 4.70 4.66 4.42 4.46 4.58 4.55 4.60 4.77 4.74 4.48 4.10 3.54 3.02 2.82 2.71 2.55 2.40 2.30 2.15 2.16 1.82 1.49 1.20 0.92 0.79 0.75 0.77 0.78
0.91 1.05 1.23 1.44 1.55 1.69 1.87 1.99 2.31 2.85 3.33 3.77 4.40 4.91 5.21 5.36 5.43 5.24 4.93 4.77 4.61 4.50 4.41 4.29 3.91 3.46 3.10 2.81 2.71 2.65 2.44 2.41 2.27 2.16 1.91 1.67 1.45 1.29 1.06 0.86 0.74 0.68 0.65
0.67 0.84 0.98 1.29 1.54 1.63 1.69 1.79 2.19 2.79 3.52 4.23 4.74 5.21 5.58 5.70 5.63 5.29 4.92 4.51 4.19 3.80 3.46 3.14 2.90 2.76 2.54 2.33 2.24 2.20 2.13 1.99 1.88 1.84 1.78 1.68 1.47 1.22 1.03 0.92 0.83 0.79 0.75
0.54 0.60 0.71 0.94 1.26 1.36 1.53 1.77 2.12 2.81 3.57 4.17 4.64 4.98 5.31 5.32 5.05 4.65 4.20 3.90 3.53 3.11 2.70 2.51 2.30 2.15 1.97 1.74 1.61 1.59 1.62 1.65 1.69 1.71 1.66 1.58 1.51 1.36 1.24 1.13 1.00 0.96 0.94
0.49 0.52 0.57 0.73 0.98 1.18 1.47 1.84 2.23 2.76 3.22 3.72 4.13 4.35 4.52 4.54 4.46 4.22 3.84 3.56 3.20 2.80 2.39 2.03 1.84 1.63 1.44 1.35 1.30 1.27 1.26 1.30 1.39 1.50 1.52 1.48 1.43 1.38 1.35 1.34 1.27 1.17 1.07
0.57 0.63 0.72 0.83 0.96 1.10 1.30 1.65 1.99 2.41 2.65 2.88 3.21 3.43 3.54 3.56 3.47 3.30 3.05 2.75 2.46 2.20 1.92 1.53 1.23 1.07 0.95 0.91 0.92 0.96 1.01 1.04 1.08 1.17 1.26 1.27 1.25 1.27 1.28 1.31 1.33 1.39 1.30
0.53 0.63 0.73 0.80 0.86 0.95 1.13 1.30 1.49 1.76 2.03 2.27 2.41 2.52 2.56 2.47 2.40 2.23 2.01 1.83 1.65 1.46 1.24 1.01 0.86 0.78 0.75 0.71 0.69 0.70 0.74 0.78 0.84 0.91 1.00 1.09 1.13 1.14 1.18 1.22 1.24 1.27 1.32
0.56 0.64 0.67 0.70 0.71 0.74 0.88 1.01 1.17 1.32 1.49 1.64 1.68 1.62 1.61 1.60 1.47 1.35 1.26 1.11 0.97 0.86 0.78 0.69 0.66 0.62 0.57 0.56 0.56 0.55 0.56 0.64 0.68 0.70 0.78 0.89 0.99 1.05 1.11 1.16 1.15 1.09 1.07
0.65 0.64 0.62 0.60 0.55 0.55 0.65 0.75 0.83 0.98 1.09 1.13 1.14 1.06 1.00 0.93 0.87 0.79 0.78 0.71 0.64 0.63 0.60 0.54 0.52 0.52 0.52 0.51 0.48 0.49 0.47 0.51 0.62 0.71 0.76 0.81 0.87 0.92 0.94 0.95 0.97 1.02 1.05
0.71 0.63 0.56 0.50 0.46 0.48 0.50 0.56 0.64 0.69 0.71 0.70 0.67 0.65 0.61 0.59 0.58 0.56 0.54 0.55 0.53 0.51 0.51 0.48 0.47 0.47 0.50 0.51 0.50 0.49 0.50 0.50 0.54 0.59 0.62 0.64 0.65 0.71 0.77 0.81 0.82 0.86 0.91
0.75 0.69 0.62 0.53 0.49 0.49 0.47 0.44 0.47 0.51 0.51 0.50 0.51 0.48 0.48 0.49 0.50 0.51 0.50 0.50 0.49 0.48 0.46 0.45 0.45 0.46 0.45 0.46 0.48 0.48 0.48 0.46 0.47 0.47 0.47 0.47 0.48 0.51 0.53 0.56 0.62 0.65 0.67
0.72 0.74 0.74 0.67 0.57 0.50 0.49 0.45 0.44 0.44 0.48 0.47 0.45 0.41 0.38 0.39 0.41 0.42 0.42 0.42 0.42 0.44 0.46 0.45 0.44 0.41 0.37 0.34 0.33 0.33 0.32 0.31 0.32 0.31 0.31 0.33 0.35 0.37 0.39 0.40 0.42 0.46 0.52
0.85 0.83 0.80 0.73 0.65 0.61 0.57 0.52 0.50 0.48 0.48 0.51 0.53 0.50 0.44 0.41 0.41 0.42 0.45 0.44 0.40 0.37 0.36 0.32 0.29 0.24 0.20 0.18 0.17 0.18 0.19 0.20 0.21 0.21 0.20 0.21 0.26 0.31 0.31 0.32 0.36 0.42 0.48
1.07 1.03 0.96 0.88 0.84 0.78 0.71 0.65 0.61 0.59 0.59 0.60 0.63 0.64 0.62 0.58 0.54 0.48 0.43 0.39 0.35 0.29 0.23 0.18 0.16 0.15 0.13 0.13 0.14 0.14 0.16 0.17 0.18 0.19 0.20 0.20 0.22 0.24 0.24 0.28 0.36 0.46 0.48
1.28 1.23 1.17 1.08 1.02 0.96 0.90 0.85 0.78 0.72 0.70 0.70 0.72 0.71 0.66 0.60 0.50 0.39 0.33 0.30 0.26 0.24 0.21 0.16 0.12 0.11 0.11 0.12 0.12 0.13 0.16 0.17 0.19 0.19 0.19 0.18 0.18 0.20 0.21 0.24 0.29 0.33 0.36
1.29 1.25 1.21 1.19 1.17 1.08 1.00 0.93 0.86 0.79 0.75 0.75 0.71 0.66 0.57 0.49 0.39 0.33 0.29 0.27 0.24 0.25 0.24 0.20 0.17 0.14 0.11 0.09 0.09 0.10 0.12 0.15 0.17 0.18 0.19 0.20 0.21 0.21 0.21 0.21 0.23 0.28 0.34
1.38 1.32 1.23 1.15 1.12 1.08 1.02 0.95 0.90 0.83 0.74 0.69 0.60 0.50 0.42 0.36 0.31 0.28 0.27 0.26 0.24 0.22 0.20 0.19 0.19 0.19 0.15 0.09 0.08 0.09 0.11 0.14 0.15 0.16 0.16 0.19 0.22 0.23 0.21 0.21 0.28 0.34 0.38
1.15 1.09 1.00 0.93 0.91 0.93 0.89 0.81 0.75 0.68 0.59 0.48 0.39 0.34 0.32 0.30 0.30 0.27 0.25 0.24 0.24 0.22 0.18 0.16 0.16 0.16 0.15 0.09 0.09 0.11 0.11 0.13 0.13 0.15 0.17 0.18 0.18 0.19 0.17 0.19 0.28 0.38 0.40
0.83 0.79 0.76 0.81 0.83 0.76 0.66 0.59 0.52 0.46 0.37 0.31 0.28 0.27 0.26 0.22 0.24 0.26 0.25 0.25 0.24 0.25 0.23 0.22 0.19 0.15 0.12 0.08 0.08 0.08 0.08 0.10 0.12 0.17 0.24 0.24 0.16 0.14 0.16 0.19 0.24 0.31 0.30
0.58 0.57 0.59 0.65 0.63 0.53 0.45 0.45 0.42 0.33 0.26 0.27 0.29 0.28 0.24 0.17 0.21 0.29 0.28 0.27 0.30 0.33 0.32 0.29 0.27 0.20 0.14 0.08 0.06 0.06 0.06 0.06 0.12 0.22 0.25 0.24 0.16 0.13 0.17 0.20 0.25 0.26 0.32
0.44 0.47 0.46 0.48 0.49 0.44 0.43 0.45 0.40 0.30 0.28 0.32 0.35 0.30 0.23 0.21 0.24 0.28 0.29 0.28 0.29 0.28 0.26 0.25 0.26 0.22 0.18 0.12 0.06 0.05 0.06 0.06 0.10 0.17 0.16 0.16 0.17 0.19 0.30 0.30 0.28 0.34 0.49
0.36 0.39 0.39 0.39 0.40 0.38 0.41 0.42 0.36 0.33 0.38 0.44 0.39 0.29 0.26 0.25 0.25 0.25 0.22 0.21 0.22 0.21 0.20 0.20 0.19 0.20 0.19 0.13 0.10 0.08 0.09 0.10 0.12 0.14 0.17 0.25 0.31 0.35 0.41 0.46 0.52 0.54 0.54
0.33 0.34 0.37 0.35 0.30 0.29 0.31 0.31 0.33 0.38 0.49 0.48 0.38 0.30 0.26 0.24 0.23 0.19 0.13 0.10 0.10 0.08 0.12 0.14 0.12 0.13 0.13 0.10 0.10 0.11 0.09 0.09 0.09 0.11 0.23 0.38 0.45 0.50 0.54 0.56 0.59 0.61 0.54
0.27 0.32 0.33 0.29 0.27 0.26 0.26 0.27 0.32 0.35 0.43 0.44 0.33 0.25 0.20 0.17 0.14 0.14 0.14 0.07 0.04 0.03 0.03 0.04 0.04 0.05 0.06 0.06 0.07 0.08 0.09 0.09 0.12 0.17 0.33 0.39 0.42 0.46 0.46 0.45 0.49 0.53 0.52

GEFSMW_prec_meanprecacc_126.txt.gz
Total_Precipitation_Accumulation
0.42 0.55 0.77 1.01 1.28 1.46 1.52 1.63 1.76 1.95 2.15 2.44 2.77 2.97 3.08 3.31 3.42 3.50 3.64 3.59 3.52 3.59 3.61 3.52 3.41 3.27 3.13 2.97 2.87 2.70 2.52 2.31 2.21 2.08 1.77 1.42 1.21 1.22 1.19 1.19 1.27 1.28 1.22
0.55 0.83 1.09 1.46 1.64 1.70 1.71 1.79 1.88 2.12 2.41 2.77 3.20 3.64 3.87 4.06 4.08 4.11 4.30 4.40 4.39 4.52 4.62 4.51 4.29 4.09 3.72 3.29 2.97 2.76 2.62 2.39 2.32 2.22 2.12 1.68 1.34 1.13 0.94 0.98 1.02 1.06 1.14
0.88 1.10 1.30 1.42 1.60 1.71 1.81 1.91 2.20 2.61 3.06 3.53 4.03 4.48 4.79 4.87 4.81 4.54 4.60 4.72 4.68 4.72 4.88 4.85 4.60 4.23 3.66 3.14 2.92 2.80 2.65 2.51 2.41 2.26 2.28 1.93 1.60 1.32 1.01 0.86 0.80 0.84 0.85
0.93 1.08 1.26 1.46 1.55 1.70 1.88 2.00 2.33 2.89 3.39 3.85 4.50 5.02 5.33 5.50 5.60 5.36 5.04 4.88 4.71 4.58 4.50 4.37 3.98 3.54 3.18 2.90 2.78 2.74 2.53 2.50 2.39 2.28 2.01 1.79 1.57 1.40 1.16 0.95 0.81 0.76 0.72
0.72 0.87 1.01 1.31 1.55 1.64 1.69 1.80 2.21 2.80 3.54 4.27 4.80 5.27 5.65 5.78 5.75 5.39 5.00 4.58 4.24 3.84 3.50 3.17 2.93 2.80 2.59 2.38 2.29 2.26 2.20 2.08 1.98 1.95 1.88 1.78 1.58 1.32 1.14 1.02 0.91 0.87 0.81
0.59 0.64 0.74 0.96 1.28 1.37 1.54 1.78 2.13 2.82 3.59 4.18 4.69 5.05 5.38 5.42 5.15 4.73 4.27 3.95 3.56 3.13 2.72 2.53 2.32 2.17 1.99 1.77 1.64 1.62 1.66 1.71 1.76 1.80 1.76 1.68 1.62 1.48 1.36 1.24 1.08 1.03 1.00
0.53 0.57 0.63 0.77 1.01 1.20 1.48 1.85 2.24 2.77 3.23 3.74 4.16 4.40 4.58 4.63 4.56 4.30 3.92 3.63 3.23 2.82 2.41 2.04 1.85 1.64 1.46 1.37 1.32 1.30 1.29 1.34 1.44 1.56 1.59 1.56 1.52 1.47 1.46 1.45 1.35 1.25 1.14
0.61 0.68 0.77 0.87 0.99 1.12 1.32 1.66 2.01 2.42 2.66 2.90 3.24 3.46 3.58 3.61 3.53 3.36 3.10 2.79 2.48 2.21 1.93 1.53 1.24 1.07 0.96 0.91 0.94 0.99 1.04 1.08 1.12 1.22 1.32 1.33 1.32 1.34 1.37 1.41 1.43 1.48 1.38
0.56 0.67 0.78 0.84 0.90 0.98 1.15 1.32 1.51 1.77 2.05 2.29 2.43 2.54 2.58 2.50 2.43 2.27 2.04 1.84 1.66 1.46 1.24 1.02 0.87 0.79 0.75 0.72 0.69 0.71 0.75 0.80 0.86 0.94 1.04 1.15 1.20 1.21 1.25 1.30 1.34 1.37 1.40
0.59 0.68 0.73 0.76 0.76 0.78 0.91 1.03 1.18 1.33 1.50 1.65 1.70 1.63 1.62 1.62 1.49 1.37 1.27 1.13 0.98 0.87 0.79 0.70 0.67 0.63 0.57 0.56 0.57 0.56 0.57 0.66 0.70 0.72 0.80 0.92 1.04 1.12 1.17 1.24 1.25 1.20 1.18
0.69 0.69 0.67 0.65 0.61 0.60 0.67 0.76 0.84 0.99 1.10 1.15 1.16 1.08 1.01 0.95 0.88 0.81 0.79 0.73 0.66 0.65 0.61 0.55 0.53 0.53 0.53 0.52 0.49 0.50 0.48 0.53 0.64 0.73 0.78 0.84 0.90 0.96 1.00 1.02 1.04 1.11 1.14
0.76 0.67 0.61 0.56 0.54 0.53 0.54 0.59 0.66 0.71 0.73 0.73 0.70 0.68 0.64 0.61 0.60 0.57 0.55 0.58 0.55 0.53 0.52 0.49 0.48 0.48 0.51 0.52 0.51 0.50 0.51 0.52 0.57 0.62 0.65 0.67 0.68 0.74 0.81 0.86 0.87 0.92 0.98
0.81 0.77 0.72 0.63 0.59 0.59 0.56 0.51 0.52 0.55 0.55 0.54 0.56 0.52 0.51 0.51 0.52 0.53 0.52 0.53 0.52 0.49 0.47 0.46 0.46 0.46 0.46 0.47 0.49 0.50 0.49 0.48 0.50 0.51 0.51 0.52 0.53 0.56 0.58 0.62 0.66 0.70 0.74
0.78 0.83 0.87 0.82 0.71 0.62 0.60 0.53 0.48 0.47 0.51 0.51 0.49 0.44 0.41 0.41 0.43 0.44 0.44 0.44 0.44 0.46 0.48 0.47 0.45 0.42 0.38 0.35 0.34 0.34 0.34 0.33 0.34 0.34 0.34 0.38 0.42 0.44 0.44 0.44 0.45 0.49 0.57
0.87 0.88 0.88 0.85 0.77 0.70 0.65 0.60 0.56 0.53 0.53 0.55 0.57 0.53 0.46 0.43 0.43 0.44 0.46 0.46 0.42 0.39 0.38 0.33 0.30 0.25 0.20 0.18 0.18 0.20 0.22 0.23 0.23 0.23 0.22 0.24 0.30 0.35 0.36 0.36 0.39 0.45 0.51
1.11 1.08 1.03 0.98 0.95 0.88 0.78 0.70 0.66 0.64 0.63 0.65 0.69 0.67 0.63 0.60 0.56 0.51 0.46 0.41 0.37 0.31 0.24 0.20 0.18 0.16 0.14 0.14 0.14 0.15 0.19 0.22 0.21 0.22 0.23 0.23 0.25 0.26 0.26 0.30 0.39 0.49 0.51
1.35 1.29 1.25 1.18 1.12 1.05 0.98 0.91 0.83 0.78 0.75 0.76 0.78 0.75 0.68 0.62 0.53 0.42 0.36 0.32 0.29 0.27 0.25 0.19 0.15 0.13 0.12 0.12 0.12 0.13 0.19 0.22 0.23 0.23 0.22 0.20 0.21 0.23 0.23 0.26 0.30 0.35 0.39
1.34 1.31 1.27 1.26 1.24 1.15 1.07 1.00 0.92 0.86 0.82 0.82 0.77 0.70 0.59 0.51 0.42 0.36 0.32 0.30 0.28 0.28 0.28 0.24 0.21 0.17 0.11 0.09 0.10 0.11 0.16 0.20 0.21 0.22 0.24 0.23 0.24 0.24 0.24 0.24 0.25 0.30 0.36
1.41 1.36 1.28 1.21 1.18 1.13 1.07 1.02 0.98 0.90 0.82 0.76 0.66 0.54 0.44 0.38 0.34 0.31 0.31 0.29 0.28 0.27 0.24 0.22 0.22 0.21 0.16 0.09 0.09 0.10 0.16 0.21 0.20 0.19 0.19 0.22 0.24 0.24 0.23 0.25 0.32 0.35 0.40
1.18 1.11 1.03 0.95 0.95 0.97 0.95 0.91 0.86 0.78 0.68 0.55 0.44 0.38 0.35 0.34 0.33 0.30 0.28 0.27 0.28 0.27 0.22 0.19 0.18 0.18 0.17 0.10 0.10 0.12 0.16 0.20 0.19 0.18 0.18 0.19 0.19 0.19 0.18 0.25 0.33 0.42 0.43
0.85 0.80 0.79 0.85 0.87 0.81 0.73 0.70 0.65 0.58 0.45 0.37 0.32 0.30 0.28 0.25 0.27 0.29 0.29 0.28 0.27 0.29 0.27 0.25 0.22 0.16 0.12 0.08 0.08 0.09 0.11 0.15 0.17 0.21 0.25 0.25 0.17 0.15 0.17 0.22 0.28 0.34 0.33
0.61 0.60 0.64 0.71 0.70 0.60 0.53 0.55 0.51 0.40 0.30 0.31 0.33 0.31 0.26 0.19 0.23 0.32 0.32 0.30 0.34 0.37 0.35 0.33 0.30 0.22 0.15 0.08 0.06 0.07 0.07 0.08 0.16 0.25 0.26 0.24 0.16 0.14 0.18 0.21 0.26 0.28 0.35
0.46 0.51 0.52 0.55 0.56 0.52 0.51 0.53 0.48 0.36 0.32 0.38 0.41 0.34 0.25 0.23 0.26 0.31 0.32 0.31 0.33 0.31 0.29 0.28 0.28 0.24 0.19 0.13 0.06 0.06 0.07 0.08 0.13 0.19 0.17 0.17 0.18 0.20 0.31 0.31 0.30 0.36 0.52
0.39 0.43 0.43 0.43 0.44 0.42 0.45 0.48 0.41 0.38 0.45 0.52 0.44 0.32 0.29 0.27 0.28 0.27 0.24 0.23 0.25 0.24 0.22 0.21 0.20 0.21 0.21 0.14 0.11 0.10 0.11 0.12 0.15 0.17 0.19 0.26 0.32 0.36 0.43 0.48 0.54 0.57 0.57
0.36 0.38 0.41 0.39 0.33 0.32 0.36 0.35 0.38 0.44 0.59 0.57 0.43 0.34 0.29 0.26 0.26 0.21 0.15 0.11 0.10 0.08 0.13 0.15 0.14 0.15 0.15 0.11 0.12 0.13 0.11 0.12 0.13 0.16 0.26 0.42 0.48 0.53 0.56 0.59 0.63 0.64 0.58
0.30 0.35 0.37 0.33 0.30 0.30 0.29 0.30 0.35 0.39 0.50 0.51 0.38 0.29 0.24 0.21 0.17 0.16 0.16 0.08 0.04 0.03 0.03 0.05 0.05 0.05 0.07 0.07 0.08 0.10 0.12 0.13 0.16 0.22 0.38 0.44 0.46 0.51 0.50 0.49 0.53 0.57 0.55

GEFSMW_prec_meanprecacc_132.txt.gz
Total_Precipitation_Accumulation
0.53 0.65 0.81 1.04 1.31 1.49 1.54 1.66 1.80 2.00 2.20 2.51 2.86 3.04 3.13 3.36 3.50 3.60 3.74 3.70 3.64 3.72 3.75 3.65 3.55 3.39 3.24 3.09 2.98 2.80 2.63 2.41 2.30 2.16 1.84 1.49 1.28 1.29 1.25 1.27 1.36 1.37 1.30
0.63 0.89 1.12 1.47 1.66 1.72 1.72 1.80 1.90 2.16 2.44 2.81 3.26 3.72 3.93 4.12 4.15 4.19 4.39 4.48 4.49 4.65 4.75 4.62 4.41 4.19 3.81 3.38 3.06 2.85 2.71 2.48 2.41 2.31 2.22 1.76 1.41 1.18 0.99 1.04 1.09 1.13 1.21
0.93 1.13 1.33 1.44 1.62 1.73 1.82 1.92 2.21 2.64 3.09 3.55 4.05 4.51 4.83 4.92 4.87 4.59 4.66 4.79 4.77 4.84 5.00 4.96 4.70 4.33 3.74 3.21 3.01 2.90 2.76 2.61 2.51 2.35 2.38 2.03 1.68 1.39 1.06 0.89 0.84 0.89 0.90
1.00 1.12 1.30 1.49 1.58 1.72 1.90 2.01 2.33 2.90 3.39 3.86 4.51 5.03 5.35 5.54 5.65 5.42 5.11 4.95 4.79 4.66 4.58 4.46 4.06 3.63 3.27 2.98 2.85 2.81 2.61 2.57 2.47 2.37 2.09 1.85 1.63 1.47 1.21 0.99 0.85 0.81 0.78
0.81 0.94 1.05 1.35 1.59 1.66 1.71 1.81 2.21 2.80 3.54 4.27 4.81 5.28 5.66 5.81 5.79 5.45 5.06 4.66 4.32 3.92 3.58 3.25 2.99 2.85 2.65 2.44 2.34 2.31 2.25 2.12 2.03 2.00 1.94 1.85 1.65 1.38 1.19 1.05 0.93 0.91 0.85
0.71 0.72 0.81 1.02 1.32 1.39 1.55 1.79 2.13 2.82 3.59 4.19 4.70 5.07 5.40 5.44 5.18 4.77 4.33 4.03 3.64 3.19 2.77 2.57 2.35 2.20 2.02 1.80 1.68 1.66 1.69 1.75 1.80 1.84 1.80 1.73 1.67 1.53 1.43 1.29 1.11 1.06 1.03
0.69 0.68 0.71 0.83 1.05 1.22 1.50 1.87 2.25 2.78 3.23 3.74 4.17 4.41 4.59 4.64 4.58 4.33 3.98 3.72 3.31 2.88 2.45 2.08 1.89 1.67 1.49 1.39 1.35 1.32 1.31 1.37 1.47 1.59 1.62 1.59 1.56 1.52 1.52 1.51 1.39 1.28 1.16
0.76 0.82 0.87 0.95 1.05 1.16 1.35 1.69 2.03 2.44 2.67 2.91 3.24 3.46 3.59 3.62 3.53 3.38 3.13 2.85 2.56 2.30 1.99 1.59 1.28 1.10 0.98 0.93 0.95 1.00 1.06 1.10 1.14 1.23 1.33 1.35 1.35 1.38 1.42 1.46 1.48 1.52 1.40
0.74 0.84 0.90 0.93 0.98 1.03 1.19 1.35 1.53 1.80 2.07 2.31 2.44 2.54 2.59 2.50 2.43 2.27 2.06 1.87 1.70 1.52 1.30 1.08 0.93 0.83 0.78 0.74 0.71 0.72 0.76 0.82 0.88 0.95 1.06 1.16 1.22 1.24 1.28 1.34 1.38 1.41 1.43
0.76 0.83 0.86 0.86 0.84 0.84 0.95 1.06 1.21 1.36 1.52 1.66 1.71 1.64 1.63 1.63 1.49 1.37 1.28 1.14 1.00 0.90 0.82 0.73 0.70 0.67 0.60 0.57 0.58 0.56 0.57 0.67 0.70 0.72 0.80 0.93 1.05 1.13 1.20 1.26 1.28 1.24 1.21
0.82 0.82 0.79 0.76 0.71 0.67 0.72 0.79 0.87 1.02 1.12 1.16 1.18 1.09 1.03 0.96 0.89 0.81 0.80 0.73 0.67 0.65 0.62 0.56 0.54 0.54 0.54 0.52 0.50 0.50 0.48 0.53 0.65 0.74 0.79 0.84 0.90 0.97 1.01 1.04 1.08 1.14 1.17
0.86 0.76 0.69 0.65 0.63 0.61 0.60 0.63 0.70 0.75 0.76 0.75 0.72 0.70 0.65 0.62 0.60 0.57 0.56 0.58 0.56 0.53 0.52 0.49 0.48 0.49 0.51 0.53 0.51 0.51 0.51 0.52 0.57 0.63 0.66 0.67 0.69 0.75 0.83 0.88 0.90 0.96 1.02
0.88 0.83 0.79 0.70 0.67 0.67 0.64 0.58 0.59 0.62 0.60 0.58 0.59 0.54 0.53 0.52 0.53 0.53 0.53 0.53 0.52 0.49 0.47 0.46 0.46 0.47 0.47 0.47 0.49 0.50 0.49 0.48 0.51 0.52 0.52 0.54 0.56 0.58 0.60 0.64 0.68 0.74 0.78
0.81 0.86 0.91 0.87 0.77 0.69 0.69 0.62 0.56 0.54 0.57 0.57 0.54 0.47 0.43 0.43 0.44 0.44 0.45 0.44 0.44 0.46 0.48 0.48 0.46 0.42 0.38 0.35 0.34 0.35 0.35 0.33 0.35 0.35 0.36 0.42 0.49 0.49 0.49 0.48 0.48 0.52 0.61
0.91 0.90 0.91 0.88 0.81 0.75 0.71 0.66 0.61 0.57 0.58 0.60 0.61 0.55 0.47 0.44 0.44 0.45 0.47 0.46 0.42 0.40 0.38 0.34 0.31 0.25 0.20 0.18 0.18 0.20 0.23 0.23 0.24 0.24 0.23 0.26 0.34 0.42 0.42 0.41 0.43 0.48 0.55
1.14 1.11 1.05 1.01 0.98 0.91 0.81 0.74 0.71 0.68 0.69 0.71 0.73 0.70 0.65 0.61 0.58 0.52 0.47 0.42 0.38 0.31 0.25 0.20 0.18 0.16 0.14 0.14 0.14 0.15 0.20 0.22 0.22 0.22 0.23 0.23 0.26 0.29 0.31 0.36 0.44 0.53 0.54
1.38 1.32 1.27 1.20 1.15 1.08 1.01 0.95 0.87 0.81 0.79 0.82 0.83 0.78 0.71 0.64 0.54 0.43 0.36 0.33 0.29 0.27 0.25 0.19 0.16 0.13 0.12 0.12 0.12 0.13 0.19 0.23 0.23 0.23 0.24 0.21 0.22 0.25 0.25 0.29 0.34 0.40 0.43
1.37 1.33 1.29 1.28 1.27 1.18 1.10 1.04 0.96 0.89 0.85 0.86 0.81 0.73 0.61 0.53 0.44 0.37 0.33 0.31 0.28 0.29 0.28 0.24 0.21 0.17 0.11 0.09 0.10 0.11 0.17 0.21 0.22 0.23 0.24 0.24 0.25 0.26 0.27 0.27 0.28 0.33 0.39
1.44 1.38 1.30 1.22 1.20 1.15 1.10 1.05 1.00 0.92 0.85 0.80 0.69 0.56 0.45 0.40 0.36 0.33 0.32 0.31 0.29 0.27 0.25 0.23 0.22 0.21 0.16 0.10 0.09 0.11 0.17 0.23 0.22 0.20 0.20 0.22 0.25 0.26 0.26 0.28 0.35 0.38 0.42
1.21 1.14 1.05 0.97 0.96 0.98 0.97 0.93 0.89 0.81 0.72 0.59 0.47 0.40 0.38 0.36 0.34 0.32 0.29 0.28 0.28 0.27 0.22 0.19 0.19 0.18 0.17 0.11 0.10 0.13 0.17 0.22 0.21 0.20 0.19 0.19 0.20 0.21 0.21 0.27 0.36 0.44 0.45
0.87 0.82 0.81 0.87 0.90 0.85 0.76 0.73 0.69 0.62 0.50 0.42 0.37 0.34 0.31 0.27 0.28 0.30 0.30 0.29 0.28 0.29 0.27 0.26 0.22 0.17 0.12 0.08 0.08 0.10 0.13 0.18 0.21 0.23 0.27 0.26 0.19 0.16 0.19 0.24 0.30 0.37 0.36
0.62 0.62 0.66 0.73 0.73 0.63 0.57 0.58 0.54 0.43 0.33 0.35 0.36 0.33 0.28 0.20 0.23 0.33 0.34 0.31 0.35 0.38 0.36 0.33 0.30 0.22 0.15 0.08 0.07 0.08 0.09 0.11 0.19 0.28 0.29 0.27 0.19 0.16 0.20 0.23 0.28 0.31 0.38
0.47 0.52 0.53 0.57 0.59 0.55 0.55 0.56 0.52 0.40 0.37 0.43 0.45 0.36 0.26 0.25 0.28 0.32 0.33 0.32 0.33 0.32 0.29 0.28 0.29 0.24 0.19 0.13 0.07 0.07 0.08 0.10 0.14 0.21 0.20 0.19 0.20 0.22 0.32 0.32 0.32 0.39 0.54
0.39 0.43 0.44 0.44 0.46 0.45 0.48 0.51 0.45 0.41 0.48 0.56 0.47 0.34 0.30 0.29 0.29 0.28 0.24 0.23 0.25 0.24 0.22 0.21 0.20 0.22 0.21 0.14 0.11 0.10 0.12 0.14 0.17 0.20 0.21 0.28 0.33 0.37 0.44 0.50 0.56 0.59 0.59
0.37 0.39 0.41 0.40 0.34 0.33 0.37 0.36 0.39 0.46 0.61 0.58 0.45 0.36 0.30 0.27 0.26 0.22 0.15 0.11 0.11 0.08 0.13 0.15 0.14 0.15 0.15 0.12 0.13 0.14 0.12 0.13 0.15 0.18 0.28 0.43 0.49 0.54 0.58 0.61 0.64 0.66 0.60
0.31 0.36 0.37 0.34 0.32 0.32 0.32 0.32 0.37 0.41 0.52 0.52 0.40 0.31 0.26 0.22 0.18 0.17 0.16 0.09 0.04 0.03 0.03 0.05 0.05 0.06 0.07 0.08 0.10 0.12 0.13 0.15 0.18 0.24 0.40 0.46 0.49 0.52 0.51 0.51 0.55 0.59 0.57

GEFSMW_prec_meanprecacc_138.txt.gz
Total_Precipitation_Accumulation
0.60 0.74 0.91 1.13 1.39 1.58 1.63 1.72 1.86 2.06 2.26 2.57 2.91 3.09 3.20 3.42 3.58 3.71 3.87 3.85 3.80 3.87 3.89 3.76 3.65 3.49 3.34 3.17 3.05 2.87 2.69 2.47 2.37 2.23 1.90 1.54 1.33 1.35 1.30 1.32 1.43 1.43 1.35
0.73 0.99 1.25 1.60 1.75 1.80 1.82 1.89 1.96 2.21 2.49 2.86 3.30 3.75 3.97 4.15 4.19 4.25 4.46 4.58 4.60 4.75 4.84 4.73 4.51 4.29 3.92 3.48 3.14 2.94 2.79 2.55 2.48 2.37 2.28 1.81 1.46 1.22 1.02 1.08 1.13 1.18 1.26
1.06 1.24 1.46 1.57 1.73 1.82 1.91 2.00 2.27 2.69 3.13 3.59 4.09 4.54 4.84 4.93 4.88 4.61 4.69 4.84 4.81 4.89 5.06 5.04 4.79 4.41 3.83 3.32 3.12 3.01 2.88 2.71 2.61 2.44 2.46 2.09 1.73 1.43 1.09 0.92 0.87 0.92 0.94
1.10 1.22 1.42 1.60 1.70 1.83 2.00 2.09 2.39 2.94 3.44 3.90 4.56 5.07 5.38 5.56 5.66 5.43 5.12 4.97 4.81 4.69 4.62 4.51 4.12 3.68 3.33 3.04 2.93 2.89 2.70 2.67 2.56 2.46 2.16 1.93 1.69 1.52 1.26 1.02 0.87 0.84 0.81
0.92 1.05 1.19 1.48 1.71 1.80 1.83 1.90 2.28 2.86 3.59 4.30 4.84 5.31 5.68 5.83 5.81 5.46 5.07 4.68 4.34 3.94 3.61 3.29 3.03 2.90 2.70 2.49 2.39 2.36 2.31 2.19 2.09 2.06 2.00 1.92 1.71 1.43 1.24 1.10 0.97 0.94 0.87
0.83 0.86 0.97 1.18 1.47 1.54 1.66 1.87 2.19 2.87 3.62 4.21 4.73 5.09 5.42 5.47 5.21 4.79 4.34 4.04 3.66 3.22 2.80 2.58 2.37 2.23 2.05 1.83 1.71 1.70 1.74 1.81 1.86 1.89 1.85 1.78 1.73 1.58 1.47 1.34 1.15 1.10 1.07
0.80 0.82 0.86 0.98 1.19 1.35 1.61 1.94 2.30 2.81 3.26 3.76 4.20 4.44 4.62 4.67 4.60 4.36 4.00 3.73 3.33 2.91 2.48 2.11 1.91 1.69 1.51 1.41 1.36 1.34 1.35 1.41 1.51 1.64 1.66 1.63 1.59 1.55 1.55 1.54 1.42 1.30 1.19
0.85 0.95 1.03 1.11 1.20 1.31 1.46 1.77 2.09 2.48 2.70 2.93 3.26 3.47 3.60 3.64 3.55 3.39 3.14 2.86 2.58 2.33 2.02 1.61 1.31 1.13 1.01 0.95 0.97 1.01 1.07 1.11 1.16 1.26 1.36 1.38 1.37 1.40 1.43 1.48 1.51 1.55 1.42
0.85 0.98 1.07 1.10 1.12 1.16 1.31 1.44 1.59 1.84 2.10 2.32 2.45 2.55 2.60 2.52 2.44 2.28 2.06 1.88 1.71 1.53 1.32 1.10 0.96 0.87 0.82 0.77 0.73 0.74 0.78 0.83 0.89 0.97 1.07 1.18 1.24 1.26 1.30 1.36 1.41 1.44 1.46
0.87 0.97 1.01 1.02 0.98 0.94 1.03 1.13 1.26 1.39 1.55 1.68 1.72 1.65 1.64 1.64 1.51 1.38 1.29 1.15 1.01 0.90 0.84 0.75 0.72 0.69 0.64 0.62 0.62 0.60 0.60 0.69 0.72 0.74 0.82 0.94 1.06 1.14 1.21 1.28 1.30 1.26 1.24
0.89 0.91 0.90 0.88 0.82 0.76 0.80 0.88 0.94 1.07 1.15 1.19 1.20 1.11 1.04 0.97 0.90 0.82 0.81 0.74 0.67 0.65 0.62 0.57 0.55 0.56 0.56 0.54 0.52 0.54 0.52 0.57 0.67 0.76 0.80 0.86 0.92 0.98 1.01 1.05 1.09 1.16 1.19
0.90 0.83 0.78 0.74 0.70 0.67 0.66 0.69 0.76 0.80 0.81 0.79 0.76 0.73 0.67 0.64 0.62 0.59 0.57 0.59 0.56 0.53 0.52 0.49 0.49 0.50 0.52 0.53 0.52 0.51 0.52 0.54 0.60 0.66 0.68 0.68 0.69 0.76 0.84 0.88 0.90 0.97 1.03
0.93 0.89 0.84 0.75 0.72 0.73 0.70 0.64 0.65 0.67 0.65 0.64 0.64 0.58 0.56 0.55 0.55 0.55 0.53 0.54 0.52 0.49 0.48 0.47 0.47 0.48 0.48 0.48 0.50 0.50 0.50 0.48 0.51 0.53 0.53 0.55 0.57 0.58 0.61 0.64 0.69 0.74 0.79
0.85 0.90 0.95 0.91 0.81 0.75 0.75 0.68 0.63 0.62 0.64 0.62 0.57 0.49 0.46 0.46 0.47 0.46 0.46 0.45 0.44 0.46 0.48 0.48 0.46 0.43 0.39 0.36 0.34 0.35 0.35 0.34 0.35 0.35 0.37 0.42 0.49 0.49 0.49 0.49 0.49 0.53 0.62
0.97 0.95 0.94 0.92 0.86 0.79 0.74 0.70 0.66 0.64 0.67 0.69 0.66 0.59 0.50 0.47 0.46 0.47 0.48 0.47 0.43 0.40 0.38 0.34 0.31 0.26 0.21 0.19 0.18 0.20 0.23 0.23 0.24 0.24 0.24 0.27 0.35 0.43 0.43 0.42 0.44 0.50 0.56
1.20 1.15 1.09 1.05 1.02 0.94 0.84 0.77 0.74 0.73 0.77 0.81 0.83 0.78 0.71 0.65 0.60 0.54 0.48 0.42 0.38 0.32 0.25 0.20 0.18 0.17 0.14 0.14 0.14 0.15 0.20 0.22 0.22 0.22 0.23 0.24 0.27 0.31 0.33 0.38 0.47 0.56 0.57
1.42 1.36 1.31 1.24 1.19 1.11 1.03 0.97 0.90 0.85 0.84 0.87 0.88 0.83 0.75 0.67 0.57 0.46 0.38 0.34 0.30 0.28 0.25 0.19 0.16 0.13 0.12 0.12 0.12 0.14 0.19 0.23 0.24 0.24 0.24 0.22 0.23 0.26 0.27 0.32 0.39 0.44 0.47
1.40 1.37 1.33 1.32 1.30 1.20 1.12 1.06 1.00 0.93 0.89 0.91 0.86 0.78 0.66 0.57 0.47 0.39 0.35 0.32 0.29 0.30 0.29 0.24 0.21 0.17 0.12 0.10 0.10 0.11 0.17 0.21 0.22 0.24 0.25 0.25 0.26 0.27 0.29 0.29 0.31 0.37 0.43
1.47 1.43 1.34 1.25 1.22 1.17 1.12 1.07 1.03 0.95 0.89 0.85 0.74 0.60 0.49 0.44 0.40 0.36 0.34 0.32 0.29 0.28 0.25 0.23 0.22 0.21 0.16 0.10 0.09 0.11 0.18 0.23 0.22 0.21 0.21 0.23 0.25 0.27 0.28 0.30 0.37 0.41 0.45
1.24 1.17 1.08 1.00 0.98 1.00 0.98 0.94 0.90 0.83 0.75 0.62 0.50 0.42 0.40 0.38 0.37 0.34 0.31 0.29 0.29 0.28 0.23 0.20 0.19 0.18 0.17 0.11 0.11 0.13 0.18 0.23 0.22 0.21 0.21 0.21 0.21 0.22 0.22 0.29 0.38 0.47 0.47
0.89 0.84 0.83 0.90 0.93 0.87 0.78 0.74 0.71 0.64 0.53 0.44 0.39 0.36 0.33 0.29 0.30 0.32 0.31 0.30 0.29 0.30 0.28 0.26 0.22 0.17 0.12 0.08 0.09 0.11 0.15 0.20 0.22 0.25 0.28 0.27 0.21 0.18 0.20 0.27 0.33 0.40 0.39
0.63 0.63 0.67 0.75 0.75 0.66 0.61 0.62 0.58 0.48 0.37 0.38 0.39 0.36 0.31 0.24 0.27 0.35 0.35 0.33 0.36 0.39 0.37 0.34 0.31 0.22 0.15 0.09 0.07 0.09 0.11 0.13 0.20 0.30 0.30 0.28 0.21 0.19 0.22 0.26 0.32 0.34 0.41
0.47 0.52 0.54 0.58 0.60 0.57 0.58 0.61 0.57 0.44 0.41 0.46 0.48 0.38 0.29 0.27 0.29 0.33 0.34 0.33 0.34 0.32 0.30 0.29 0.29 0.24 0.19 0.13 0.07 0.08 0.09 0.12 0.16 0.22 0.21 0.20 0.22 0.24 0.35 0.35 0.34 0.41 0.57
0.39 0.44 0.45 0.45 0.47 0.46 0.51 0.54 0.47 0.44 0.52 0.59 0.51 0.38 0.34 0.31 0.31 0.29 0.25 0.24 0.26 0.24 0.22 0.21 0.20 0.22 0.21 0.15 0.11 0.11 0.12 0.15 0.18 0.21 0.23 0.29 0.34 0.38 0.45 0.51 0.58 0.61 0.61
0.37 0.39 0.41 0.40 0.35 0.34 0.38 0.38 0.41 0.48 0.64 0.61 0.48 0.38 0.32 0.29 0.29 0.24 0.16 0.12 0.11 0.09 0.13 0.15 0.14 0.16 0.16 0.13 0.14 0.14 0.13 0.13 0.15 0.18 0.30 0.46 0.50 0.55 0.59 0.62 0.65 0.68 0.62
0.31 0.36 0.38 0.34 0.33 0.33 0.33 0.33 0.38 0.43 0.55 0.55 0.41 0.32 0.28 0.23 0.19 0.18 0.17 0.09 0.05 0.03 0.03 0.05 0.05 0.06 0.08 0.09 0.11 0.12 0.14 0.15 0.18 0.25 0.41 0.49 0.51 0.55 0.54 0.53 0.57 0.61 0.59

GEFSMW_prec_meanprecacc_144.txt.gz
Total_Precipitation_Accumulation
0.65 0.80 0.98 1.20 1.45 1.64 1.69 1.79 1.93 2.13 2.34 2.64 2.98 3.14 3.23 3.46 3.62 3.75 3.92 3.89 3.85 3.95 3.99 3.87 3.76 3.61 3.48 3.30 3.18 2.98 2.81 2.59 2.49 2.36 2.04 1.66 1.42 1.41 1.34 1.36 1.47 1.47 1.39
0.79 1.06 1.34 1.68 1.82 1.86 1.89 1.96 2.06 2.32 2.59 2.93 3.37 3.81 4.02 4.19 4.23 4.30 4.50 4.62 4.64 4.80 4.91 4.81 4.62 4.39 4.04 3.61 3.28 3.08 2.93 2.68 2.62 2.55 2.45 1.95 1.57 1.30 1.07 1.12 1.18 1.24 1.31
1.09 1.32 1.55 1.66 1.81 1.89 1.99 2.09 2.37 2.80 3.23 3.68 4.17 4.61 4.91 4.98 4.92 4.64 4.73 4.87 4.84 4.92 5.10 5.08 4.85 4.49 3.94 3.44 3.27 3.17 3.03 2.85 2.73 2.57 2.62 2.25 1.86 1.53 1.16 0.97 0.91 0.96 0.99
1.14 1.28 1.49 1.69 1.80 1.91 2.09 2.20 2.52 3.07 3.55 3.99 4.63 5.13 5.43 5.61 5.71 5.47 5.16 5.01 4.84 4.72 4.64 4.53 4.16 3.72 3.39 3.14 3.04 3.00 2.81 2.79 2.69 2.59 2.29 2.06 1.83 1.64 1.35 1.08 0.92 0.87 0.85
0.96 1.11 1.24 1.54 1.81 1.90 1.93 2.01 2.41 3.01 3.73 4.41 4.92 5.37 5.73 5.88 5.86 5.50 5.11 4.71 4.36 3.95 3.62 3.30 3.05 2.92 2.73 2.53 2.45 2.43 2.38 2.26 2.18 2.16 2.10 2.02 1.81 1.54 1.35 1.19 1.03 0.98 0.90
0.87 0.90 1.01 1.24 1.56 1.63 1.76 1.95 2.28 2.96 3.70 4.29 4.80 5.15 5.48 5.51 5.24 4.82 4.36 4.06 3.68 3.23 2.81 2.59 2.38 2.25 2.08 1.87 1.75 1.74 1.79 1.86 1.93 1.98 1.94 1.88 1.83 1.68 1.58 1.43 1.23 1.16 1.10
0.82 0.85 0.91 1.05 1.28 1.42 1.68 2.01 2.39 2.88 3.30 3.80 4.24 4.47 4.66 4.71 4.63 4.39 4.03 3.76 3.36 2.93 2.51 2.14 1.94 1.72 1.54 1.45 1.40 1.37 1.37 1.44 1.55 1.69 1.74 1.71 1.67 1.63 1.63 1.62 1.50 1.36 1.24
0.89 1.01 1.11 1.19 1.30 1.41 1.54 1.85 2.17 2.54 2.75 2.97 3.30 3.51 3.65 3.70 3.62 3.45 3.19 2.91 2.62 2.36 2.04 1.64 1.35 1.17 1.06 0.99 1.00 1.04 1.10 1.13 1.18 1.28 1.40 1.43 1.42 1.45 1.50 1.56 1.59 1.60 1.46
0.90 1.04 1.16 1.22 1.26 1.30 1.43 1.55 1.68 1.91 2.14 2.35 2.48 2.57 2.62 2.56 2.50 2.36 2.14 1.93 1.75 1.56 1.34 1.12 0.97 0.89 0.86 0.81 0.76 0.78 0.80 0.85 0.91 0.98 1.09 1.21 1.28 1.30 1.35 1.43 1.48 1.51 1.51
0.96 1.06 1.09 1.12 1.12 1.08 1.15 1.24 1.35 1.47 1.60 1.71 1.74 1.68 1.67 1.68 1.56 1.43 1.34 1.19 1.05 0.94 0.86 0.77 0.74 0.71 0.66 0.64 0.65 0.63 0.62 0.71 0.75 0.76 0.84 0.96 1.08 1.17 1.24 1.32 1.35 1.32 1.30
0.95 0.97 0.97 0.97 0.95 0.87 0.89 0.95 1.01 1.14 1.21 1.23 1.23 1.14 1.08 1.01 0.94 0.85 0.85 0.78 0.71 0.68 0.64 0.59 0.57 0.57 0.58 0.57 0.55 0.56 0.54 0.59 0.70 0.78 0.83 0.88 0.93 1.00 1.04 1.07 1.12 1.19 1.23
0.97 0.89 0.83 0.79 0.76 0.72 0.71 0.74 0.81 0.86 0.87 0.85 0.81 0.77 0.72 0.67 0.66 0.63 0.62 0.63 0.60 0.56 0.54 0.51 0.51 0.51 0.54 0.55 0.54 0.53 0.54 0.55 0.61 0.67 0.71 0.72 0.72 0.79 0.86 0.91 0.93 1.00 1.06
0.97 0.92 0.88 0.79 0.75 0.77 0.73 0.66 0.67 0.70 0.69 0.69 0.69 0.63 0.61 0.60 0.59 0.59 0.57 0.57 0.56 0.52 0.49 0.48 0.48 0.49 0.50 0.49 0.51 0.51 0.51 0.49 0.53 0.54 0.55 0.58 0.60 0.62 0.64 0.67 0.72 0.77 0.82
0.88 0.92 0.97 0.94 0.85 0.78 0.77 0.70 0.65 0.65 0.68 0.67 0.64 0.55 0.51 0.51 0.52 0.51 0.51 0.50 0.49 0.50 0.51 0.50 0.47 0.44 0.41 0.37 0.35 0.35 0.36 0.34 0.36 0.36 0.38 0.45 0.52 0.52 0.52 0.51 0.51 0.55 0.65
0.99 0.96 0.97 0.95 0.89 0.81 0.76 0.71 0.68 0.67 0.72 0.76 0.76 0.67 0.56 0.52 0.50 0.50 0.51 0.50 0.46 0.43 0.41 0.36 0.33 0.27 0.22 0.20 0.18 0.21 0.23 0.24 0.25 0.25 0.25 0.28 0.37 0.45 0.45 0.43 0.46 0.52 0.58
1.22 1.18 1.12 1.08 1.05 0.96 0.86 0.78 0.75 0.75 0.80 0.87 0.92 0.90 0.82 0.72 0.66 0.58 0.53 0.48 0.44 0.36 0.27 0.22 0.20 0.18 0.15 0.14 0.14 0.15 0.21 0.23 0.23 0.24 0.24 0.25 0.28 0.32 0.34 0.40 0.49 0.58 0.58
1.46 1.40 1.35 1.28 1.22 1.14 1.06 1.00 0.93 0.87 0.87 0.91 0.93 0.90 0.83 0.74 0.64 0.53 0.45 0.41 0.36 0.32 0.28 0.22 0.17 0.15 0.13 0.12 0.12 0.14 0.20 0.24 0.25 0.26 0.26 0.24 0.24 0.28 0.29 0.34 0.41 0.46 0.49
1.42 1.41 1.38 1.36 1.33 1.23 1.15 1.10 1.03 0.96 0.92 0.94 0.90 0.83 0.72 0.63 0.53 0.46 0.42 0.38 0.35 0.34 0.32 0.27 0.23 0.19 0.13 0.10 0.10 0.11 0.18 0.23 0.24 0.25 0.27 0.27 0.29 0.29 0.31 0.31 0.33 0.39 0.46
1.49 1.45 1.36 1.28 1.25 1.20 1.15 1.09 1.06 0.99 0.92 0.89 0.79 0.65 0.55 0.50 0.47 0.43 0.41 0.38 0.36 0.33 0.29 0.26 0.24 0.24 0.18 0.10 0.09 0.11 0.20 0.26 0.24 0.22 0.22 0.25 0.28 0.30 0.30 0.33 0.40 0.45 0.49
1.25 1.18 1.09 1.02 1.01 1.03 1.01 0.97 0.93 0.86 0.79 0.66 0.54 0.47 0.43 0.42 0.41 0.40 0.38 0.35 0.34 0.33 0.26 0.22 0.21 0.21 0.19 0.11 0.11 0.14 0.20 0.27 0.24 0.23 0.23 0.22 0.23 0.24 0.24 0.32 0.42 0.51 0.52
0.90 0.85 0.84 0.91 0.95 0.91 0.82 0.78 0.75 0.69 0.58 0.48 0.43 0.39 0.36 0.32 0.33 0.34 0.34 0.34 0.33 0.34 0.31 0.28 0.24 0.20 0.14 0.09 0.09 0.11 0.16 0.22 0.24 0.26 0.30 0.28 0.21 0.19 0.22 0.29 0.37 0.44 0.43
0.64 0.64 0.68 0.76 0.77 0.69 0.65 0.67 0.62 0.53 0.43 0.45 0.45 0.41 0.35 0.28 0.30 0.38 0.38 0.35 0.39 0.42 0.40 0.37 0.33 0.24 0.17 0.09 0.07 0.09 0.11 0.14 0.23 0.32 0.31 0.29 0.21 0.20 0.24 0.29 0.36 0.39 0.45
0.48 0.53 0.55 0.59 0.62 0.60 0.61 0.65 0.60 0.48 0.45 0.53 0.53 0.43 0.34 0.35 0.35 0.37 0.37 0.35 0.36 0.34 0.32 0.31 0.31 0.26 0.20 0.14 0.07 0.08 0.10 0.12 0.17 0.24 0.22 0.21 0.23 0.26 0.37 0.38 0.37 0.45 0.61
0.40 0.44 0.45 0.46 0.50 0.49 0.53 0.56 0.50 0.47 0.56 0.64 0.55 0.41 0.36 0.35 0.34 0.32 0.28 0.26 0.28 0.27 0.25 0.23 0.21 0.23 0.23 0.16 0.12 0.12 0.13 0.15 0.19 0.22 0.24 0.30 0.35 0.40 0.48 0.53 0.60 0.64 0.66
0.38 0.40 0.43 0.42 0.37 0.37 0.41 0.39 0.42 0.51 0.67 0.64 0.51 0.41 0.34 0.32 0.31 0.26 0.18 0.14 0.13 0.10 0.14 0.16 0.14 0.17 0.17 0.13 0.14 0.15 0.13 0.14 0.16 0.19 0.31 0.48 0.52 0.57 0.60 0.64 0.68 0.71 0.65
0.32 0.38 0.39 0.35 0.35 0.36 0.36 0.35 0.39 0.45 0.57 0.57 0.43 0.34 0.30 0.26 0.22 0.20 0.19 0.10 0.06 0.04 0.04 0.05 0.05 0.06 0.09 0.09 0.11 0.13 0.14 0.15 0.19 0.25 0.43 0.51 0.54 0.56 0.55 0.55 0.59 0.64 0.62